QPF
0.00 0.00 0.00 0.00 0.00 0.00 0.00 0.00 0.01 0.03 0.04 0.02 0.01 0.00 0.00 0.00 0.00 0.00 0.00 0.00 0.00 0.00 0.00 0.00 0.00 0.00 0.00 0.00 0.00 0.00 0.00 0.00 0.00 0.00 0.00 0.00 0.00 0.00 0.00 0.00 0.00 0.00 0.00 0.00
0.00 0.00 0.00 0.00 0.00 0.01 0.00 0.00 0.00 0.00 0.03 0.05 0.02 0.01 0.02 0.00 0.00 0.00 0.00 0.00 0.00 0.00 0.00 0.00 0.00 0.00 0.00 0.00 0.00 0.00 0.00 0.00 0.00 0.00 0.00 0.00 0.00 0.00 0.00 0.00 0.00 0.00 0.00 0.00
0.00 0.00 0.00 0.00 0.00 0.00 0.00 0.00 0.00 0.00 0.00 0.04 0.04 0.03 0.02 0.00 0.00 0.00 0.00 0.00 0.00 0.00 0.00 0.00 0.00 0.00 0.00 0.00 0.00 0.00 0.00 0.00 0.00 0.00 0.00 0.00 0.00 0.00 0.00 0.00 0.00 0.00 0.00 0.00
0.00 0.00 0.00 0.00 0.00 0.00 0.00 0.00 0.00 0.00 0.00 0.01 0.01 0.00 0.00 0.00 0.00 0.00 0.00 0.00 0.00 0.00 0.00 0.00 0.00 0.00 0.00 0.00 0.00 0.00 0.00 0.00 0.00 0.00 0.00 0.00 0.00 0.00 0.00 0.00 0.00 0.00 0.00 0.00
0.00 0.00 0.00 0.00 0.00 0.00 0.00 0.00 0.00 0.00 0.00 0.02 0.00 0.01 0.00 0.00 0.00 0.00 0.00 0.00 0.00 0.00 0.00 0.00 0.00 0.00 0.00 0.00 0.00 0.00 0.00 0.00 0.00 0.00 0.00 0.00 0.00 0.00 0.00 0.00 0.00 0.00 0.00 0.00
0.00 0.00 0.00 0.00 0.00 0.00 0.01 0.01 0.04 0.05 0.02 0.10 0.00 0.00 0.00 0.00 0.00 0.00 0.00 0.00 0.00 0.00 0.00 0.00 0.00 0.00 0.00 0.00 0.00 0.00 0.00 0.00 0.00 0.00 0.00 0.00 0.00 0.00 0.00 0.00 0.00 0.00 0.00 0.00
0.00 0.00 0.00 0.00 0.00 0.00 0.06 0.07 0.17 0.19 0.14 0.04 0.00 0.00 0.00 0.00 0.00 0.00 0.00 0.00 0.00 0.00 0.00 0.00 0.00 0.00 0.00 0.00 0.00 0.00 0.00 0.00 0.00 0.00 0.00 0.00 0.00 0.00 0.00 0.00 0.00 0.00 0.00 0.00
0.00 0.00 0.00 0.00 0.00 0.01 0.05 0.03 0.07 0.03 0.01 0.00 0.00 0.00 0.00 0.00 0.00 0.00 0.00 0.00 0.00 0.00 0.00 0.00 0.00 0.00 0.00 0.00 0.00 0.00 0.00 0.00 0.00 0.00 0.00 0.00 0.00 0.00 0.00 0.00 0.00 0.00 0.00 0.00
0.00 0.00 0.00 0.00 0.00 0.01 0.04 0.06 0.01 0.00 0.00 0.00 0.00 0.00 0.00 0.00 0.00 0.00 0.00 0.00 0.00 0.00 0.00 0.00 0.00 0.00 0.00 0.00 0.00 0.00 0.00 0.00 0.00 0.00 0.00 0.00 0.00 0.00 0.00 0.00 0.00 0.00 0.00 0.00
0.00 0.00 0.00 0.00 0.00 0.01 0.01 0.02 0.07 0.10 0.03 0.00 0.00 0.00 0.00 0.00 0.00 0.00 0.00 0.00 0.00 0.00 0.00 0.00 0.00 0.00 0.00 0.00 0.00 0.00 0.00 0.00 0.00 0.00 0.00 0.00 0.00 0.00 0.00 0.00 0.00 0.00 0.00 0.00
0.00 0.00 0.00 0.00 0.00 0.00 0.00 0.02 0.09 0.11 0.05 0.01 0.00 0.00 0.00 0.00 0.00 0.00 0.00 0.00 0.00 0.00 0.00 0.00 0.00 0.00 0.00 0.00 0.00 0.00 0.00 0.00 0.00 0.00 0.00 0.00 0.00 0.00 0.00 0.00 0.00 0.00 0.00 0.00
0.00 0.00 0.00 0.00 0.00 0.00 0.00 0.00 0.01 0.02 0.03 0.01 0.00 0.00 0.00 0.00 0.00 0.00 0.00 0.00 0.00 0.00 0.00 0.00 0.00 0.00 0.00 0.00 0.00 0.00 0.00 0.00 0.00 0.00 0.00 0.00 0.00 0.00 0.00 0.00 0.00 0.00 0.00 0.00
0.00 0.01 0.00 0.00 0.00 0.00 0.00 0.00 0.00 0.00 0.00 0.00 0.00 0.00 0.00 0.00 0.00 0.00 0.00 0.00 0.00 0.00 0.00 0.00 0.00 0.00 0.00 0.00 0.00 0.00 0.00 0.00 0.00 0.00 0.00 0.00 0.00 0.00 0.00 0.00 0.00 0.00 0.00 0.00
0.01 0.04 0.00 0.00 0.00 0.00 0.00 0.00 0.00 0.00 0.00 0.00 0.00 0.00 0.00 0.00 0.00 0.00 0.00 0.00 0.00 0.00 0.00 0.00 0.00 0.00 0.00 0.00 0.00 0.00 0.00 0.00 0.00 0.00 0.00 0.00 0.00 0.00 0.00 0.00 0.00 0.00 0.00 0.00
0.03 0.03 0.00 0.00 0.00 0.00 0.00 0.01 0.01 0.00 0.00 0.00 0.00 0.00 0.00 0.00 0.00 0.00 0.00 0.00 0.00 0.00 0.00 0.00 0.00 0.00 0.00 0.00 0.00 0.00 0.00 0.00 0.00 0.00 0.00 0.00 0.00 0.00 0.00 0.00 0.00 0.00 0.00 0.00
0.07 0.05 0.00 0.00 0.00 0.00 0.00 0.00 0.00 0.00 0.00 0.00 0.00 0.00 0.00 0.00 0.00 0.00 0.00 0.00 0.00 0.00 0.00 0.00 0.00 0.00 0.00 0.00 0.00 0.00 0.00 0.00 0.00 0.00 0.00 0.00 0.00 0.00 0.00 0.00 0.00 0.00 0.00 0.00
0.09 0.07 0.02 0.00 0.00 0.00 0.00 0.00 0.00 0.00 0.00 0.00 0.00 0.00 0.00 0.00 0.00 0.00 0.00 0.00 0.00 0.00 0.00 0.00 0.00 0.00 0.00 0.00 0.00 0.00 0.00 0.00 0.00 0.00 0.00 0.00 0.00 0.00 0.00 0.00 0.00 0.00 0.00 0.00
0.05 0.07 0.06 0.02 0.00 0.02 0.00 0.00 0.00 0.00 0.00 0.00 0.00 0.00 0.00 0.00 0.00 0.00 0.00 0.00 0.00 0.00 0.00 0.00 0.00 0.00 0.00 0.00 0.00 0.00 0.00 0.00 0.00 0.00 0.00 0.00 0.00 0.00 0.00 0.00 0.00 0.00 0.00 0.00
0.01 0.06 0.11 0.04 0.00 0.00 0.00 0.00 0.00 0.00 0.00 0.00 0.00 0.00 0.00 0.00 0.00 0.00 0.00 0.00 0.00 0.00 0.00 0.00 0.00 0.00 0.00 0.00 0.00 0.00 0.00 0.00 0.00 0.00 0.00 0.00 0.00 0.00 0.00 0.00 0.00 0.00 0.00 0.00
0.00 0.02 0.10 0.05 0.01 0.00 0.00 0.00 0.00 0.00 0.00 0.00 0.00 0.00 0.00 0.00 0.00 0.00 0.00 0.00 0.00 0.00 0.00 0.00 0.00 0.00 0.00 0.00 0.00 0.00 0.00 0.00 0.00 0.00 0.00 0.00 0.00 0.00 0.00 0.00 0.00 0.00 0.00 0.00
0.01 0.04 0.10 0.04 0.02 0.00 0.00 0.00 0.00 0.00 0.00 0.00 0.00 0.00 0.00 0.00 0.00 0.00 0.00 0.00 0.00 0.00 0.00 0.00 0.00 0.00 0.00 0.00 0.00 0.00 0.00 0.00 0.00 0.00 0.00 0.00 0.00 0.00 0.00 0.00 0.00 0.00 0.00 0.00
0.01 0.04 0.06 0.03 0.02 0.00 0.00 0.00 0.00 0.00 0.00 0.00 0.00 0.00 0.00 0.00 0.00 0.00 0.00 0.00 0.00 0.00 0.00 0.00 0.00 0.00 0.00 0.00 0.00 0.00 0.00 0.00 0.00 0.00 0.00 0.00 0.00 0.00 0.00 0.00 0.00 0.00 0.00 0.00
0.01 0.00 0.01 0.01 0.00 0.00 0.00 0.00 0.00 0.00 0.00 0.00 0.00 0.00 0.00 0.00 0.00 0.00 0.00 0.00 0.00 0.00 0.00 0.00 0.00 0.00 0.00 0.00 0.00 0.00 0.00 0.00 0.00 0.00 0.00 0.00 0.00 0.00 0.00 0.00 0.00 0.00 0.00 0.00
0.00 0.00 0.01 0.00 0.00 0.00 0.00 0.00 0.00 0.00 0.00 0.00 0.00 0.00 0.00 0.00 0.00 0.00 0.00 0.00 0.00 0.00 0.00 0.00 0.00 0.00 0.00 0.00 0.00 0.00 0.00 0.00 0.00 0.00 0.00 0.00 0.00 0.00 0.00 0.00 0.00 0.00 0.00 0.00
0.00 0.00 0.00 0.00 0.00 0.00 0.00 0.00 0.00 0.00 0.00 0.00 0.00 0.00 0.00 0.00 0.00 0.00 0.00 0.00 0.00 0.00 0.00 0.00 0.00 0.00 0.00 0.00 0.00 0.00 0.00 0.00 0.00 0.00 0.00 0.00 0.00 0.00 0.00 0.00 0.00 0.00 0.00 0.00
0.01 0.00 0.00 0.00 0.00 0.00 0.00 0.00 0.00 0.00 0.00 0.00 0.00 0.00 0.00 0.00 0.00 0.00 0.00 0.00 0.00 0.00 0.00 0.00 0.00 0.00 0.00 0.00 0.00 0.00 0.00 0.00 0.00 0.00 0.00 0.00 0.00 0.00 0.00 0.00 0.00 0.00 0.00 0.00
MSLP
1013.88 1013.93 1012.85 1012.88 1013.54 1013.45 1013.43 1013.36 1013.10 1012.57 1012.41 1012.74 1012.48 1012.27 1011.36 1010.97 1010.83 1011.51 1011.86 1012.66 1013.54 1013.85 1014.24 1014.97 1015.53 1015.85 1016.58 1017.22 1017.70 1018.04 1018.57 1019.13 1019.58 1020.58 1021.41 1022.24 1022.94 1023.34 1023.82 1023.95 1024.08 1024.35 1024.65 1024.88
1014.22 1012.58 1012.54 1012.95 1013.24 1013.26 1013.32 1013.32 1012.83 1012.24 1011.81 1012.35 1011.93 1011.45 1010.83 1010.40 1010.33 1010.04 1011.13 1011.21 1012.18 1013.24 1013.82 1014.48 1015.02 1015.56 1016.20 1016.86 1017.45 1018.02 1018.39 1019.01 1019.41 1020.25 1021.07 1021.73 1022.76 1023.53 1023.79 1024.16 1024.45 1024.68 1025.01 1025.24
1012.45 1011.74 1012.14 1012.59 1012.64 1012.76 1012.73 1012.63 1012.30 1012.05 1011.78 1011.72 1011.67 1011.19 1010.91 1010.16 1009.77 1009.61 1009.70 1010.30 1010.62 1011.43 1012.58 1013.60 1014.33 1014.94 1015.68 1016.54 1017.16 1017.70 1018.25 1018.77 1019.26 1020.12 1021.15 1022.27 1022.94 1023.74 1024.26 1024.57 1024.89 1025.14 1025.23 1025.47
1012.29 1011.90 1011.56 1011.86 1011.75 1011.84 1011.48 1011.57 1012.46 1012.48 1012.12 1011.87 1011.67 1010.54 1009.27 1009.17 1008.82 1008.90 1008.75 1009.14 1009.38 1009.83 1011.26 1012.18 1013.40 1014.21 1014.88 1015.96 1016.90 1017.58 1018.18 1018.61 1019.19 1019.92 1020.90 1021.66 1022.67 1023.64 1024.26 1024.45 1024.93 1025.33 1025.42 1025.73
1010.77 1011.01 1011.33 1011.13 1010.52 1011.23 1010.58 1011.19 1011.64 1012.00 1012.10 1012.31 1011.17 1011.06 1007.91 1007.60 1007.67 1007.37 1007.09 1007.37 1008.16 1008.99 1009.50 1010.97 1012.11 1012.99 1013.96 1015.14 1016.31 1017.21 1018.01 1018.53 1019.10 1019.80 1020.54 1021.51 1022.61 1023.41 1024.06 1024.51 1025.02 1025.50 1025.74 1025.85
1010.06 1009.99 1010.17 1009.70 1009.96 1010.32 1010.53 1011.24 1011.58 1011.93 1012.38 1011.84 1010.24 1010.03 1007.47 1006.24 1004.19 1003.99 1005.20 1005.91 1006.86 1008.32 1009.27 1010.53 1011.90 1012.93 1013.60 1014.79 1015.92 1017.05 1017.75 1018.43 1018.98 1019.66 1020.53 1021.24 1022.27 1023.39 1024.29 1024.89 1025.26 1025.64 1026.03 1026.19
1010.06 1009.56 1009.29 1008.98 1009.36 1009.77 1010.25 1010.79 1011.21 1011.72 1011.98 1010.65 1009.40 1009.29 1006.06 1003.69 1003.33 1002.87 1003.25 1004.29 1005.94 1007.47 1008.78 1010.12 1011.32 1012.32 1013.19 1014.18 1015.37 1016.85 1017.52 1018.24 1018.99 1019.72 1020.52 1021.15 1021.97 1022.86 1023.73 1024.50 1025.06 1025.65 1026.12 1026.34
1009.25 1008.70 1008.18 1007.91 1007.83 1008.36 1009.30 1009.79 1009.73 1010.31 1010.70 1009.98 1009.22 1007.48 1003.86 1002.40 1002.32 1002.57 1002.65 1002.92 1004.90 1006.47 1007.73 1008.84 1009.89 1011.52 1012.60 1013.61 1014.80 1016.39 1017.45 1018.16 1018.85 1019.63 1020.52 1021.22 1021.93 1022.79 1023.57 1024.20 1024.87 1025.40 1025.87 1026.17
1007.98 1007.53 1006.30 1006.09 1006.88 1007.38 1008.25 1008.76 1008.77 1009.69 1009.79 1009.53 1007.78 1005.79 1003.48 1002.30 1002.13 1001.93 1001.78 1002.47 1003.37 1004.73 1006.37 1007.95 1009.30 1010.82 1012.25 1013.46 1014.29 1015.78 1017.10 1018.05 1018.83 1019.68 1020.67 1021.48 1022.07 1022.81 1023.61 1024.29 1024.89 1025.47 1025.83 1026.01
1007.10 1006.87 1005.88 1005.69 1006.09 1006.65 1006.99 1007.72 1008.72 1009.36 1009.32 1009.07 1006.55 1005.07 1003.06 1002.29 1001.22 1001.34 1001.44 1001.77 1003.02 1004.59 1006.06 1007.68 1008.98 1010.62 1012.15 1013.04 1014.50 1015.73 1016.79 1017.89 1018.93 1019.75 1020.69 1021.53 1022.24 1022.99 1023.73 1024.37 1024.94 1025.51 1025.86 1026.10
1007.12 1007.23 1006.40 1006.06 1005.37 1005.39 1006.52 1006.86 1007.60 1008.16 1008.36 1007.94 1006.48 1003.81 1001.70 1001.20 1001.07 1000.91 1001.31 1001.80 1002.72 1004.24 1005.86 1007.23 1008.93 1010.76 1012.04 1013.26 1014.53 1015.76 1016.85 1018.09 1019.26 1019.98 1020.98 1021.78 1022.57 1023.23 1023.89 1024.46 1025.01 1025.57 1025.88 1026.11
1006.78 1006.77 1006.67 1005.92 1005.06 1004.45 1004.92 1005.53 1006.38 1007.05 1007.53 1007.00 1006.32 1003.91 1001.75 1001.23 1001.34 1001.27 1002.24 1002.77 1003.50 1005.02 1006.17 1007.73 1009.15 1010.84 1012.29 1013.41 1014.62 1015.80 1017.14 1018.34 1019.41 1020.33 1021.26 1022.15 1022.80 1023.41 1024.05 1024.66 1025.21 1025.57 1026.02 1026.25
1006.71 1006.23 1006.69 1005.96 1005.45 1004.81 1004.49 1004.72 1005.32 1005.48 1005.95 1005.86 1005.40 1003.70 1002.01 1001.28 1001.49 1002.03 1002.59 1003.53 1004.55 1005.70 1007.14 1008.41 1009.90 1011.25 1012.27 1013.41 1014.72 1016.05 1017.42 1018.54 1019.64 1020.56 1021.47 1022.46 1023.15 1023.71 1024.32 1024.81 1025.32 1025.69 1026.14 1026.36
1007.68 1006.64 1005.46 1004.86 1004.33 1004.08 1004.34 1004.03 1004.36 1004.86 1005.31 1004.66 1003.80 1002.74 1001.11 1001.93 1002.64 1003.26 1003.95 1004.17 1005.01 1006.57 1007.29 1008.66 1010.33 1011.41 1012.18 1013.45 1014.82 1016.21 1017.65 1018.66 1019.78 1020.85 1021.82 1022.70 1023.47 1023.92 1024.42 1024.97 1025.46 1025.93 1026.20 1026.39
1008.58 1006.96 1006.00 1005.04 1004.36 1003.73 1003.18 1003.30 1003.67 1004.04 1003.27 1003.85 1001.89 1002.64 1001.91 1001.89 1002.40 1002.87 1003.74 1004.85 1005.70 1007.05 1008.22 1009.35 1010.61 1011.71 1012.64 1013.97 1015.34 1016.55 1017.83 1019.00 1020.06 1021.16 1022.19 1023.05 1023.65 1024.09 1024.62 1025.17 1025.61 1026.02 1026.18 1026.43
1009.95 1007.63 1005.78 1004.65 1004.23 1003.73 1002.83 1002.15 1002.23 1001.78 1001.61 1001.84 1001.99 1002.00 1002.01 1002.24 1003.02 1004.08 1004.61 1005.12 1005.92 1007.46 1008.75 1009.87 1011.13 1011.98 1013.07 1014.39 1015.73 1016.88 1018.17 1019.40 1020.39 1021.51 1022.55 1023.24 1023.84 1024.39 1024.92 1025.39 1025.79 1026.11 1026.37 1026.61
1010.74 1008.95 1006.45 1004.52 1003.81 1003.55 1001.76 1001.05 1001.09 1001.01 1001.16 1001.06 1001.47 1000.05 1002.22 1002.90 1003.10 1003.94 1004.59 1005.38 1006.20 1007.45 1009.03 1010.11 1011.45 1012.34 1013.73 1014.87 1015.98 1017.27 1018.61 1019.81 1020.90 1021.88 1022.86 1023.51 1024.09 1024.69 1025.14 1025.46 1025.90 1026.27 1026.50 1026.59
1009.41 1008.92 1007.15 1005.19 1003.79 1002.37 1000.13 999.47 999.75 1000.14 1000.02 1000.45 1000.57 1000.68 1001.22 1002.03 1003.42 1004.14 1004.75 1005.37 1006.83 1008.03 1009.47 1010.89 1012.05 1013.33 1014.53 1015.55 1016.87 1017.97 1019.20 1020.34 1021.35 1022.31 1023.20 1023.76 1024.36 1024.85 1025.25 1025.72 1026.02 1026.32 1026.57 1026.53
1008.28 1008.03 1006.80 1005.25 1003.38 1001.26 1000.12 999.43 999.33 999.71 999.18 999.50 999.85 1000.92 1001.96 1002.92 1004.01 1005.31 1005.32 1006.26 1007.27 1008.86 1010.44 1011.56 1012.62 1013.99 1015.21 1016.49 1017.69 1018.76 1020.03 1020.94 1021.82 1022.80 1023.52 1024.12 1024.44 1025.02 1025.47 1025.83 1026.24 1026.48 1026.49 1026.54
1006.08 1006.40 1006.18 1005.11 1003.53 1001.57 999.64 999.20 998.87 999.13 998.43 998.29 998.89 1000.08 1001.52 1002.70 1004.82 1005.94 1006.37 1007.06 1008.54 1009.77 1010.87 1012.29 1013.64 1014.84 1016.07 1017.58 1018.47 1019.44 1020.73 1021.55 1022.51 1023.28 1023.86 1024.13 1024.62 1025.02 1025.57 1026.04 1026.29 1026.27 1026.38 1026.61
1005.29 1005.62 1004.75 1004.72 1004.04 1001.80 1000.14 999.64 999.21 999.69 999.42 998.76 998.45 999.60 1000.98 1001.97 1002.74 1005.48 1006.99 1008.54 1009.30 1010.54 1011.88 1013.19 1014.47 1015.79 1017.22 1018.28 1019.25 1020.35 1021.34 1022.28 1022.97 1023.48 1023.98 1024.41 1024.81 1025.19 1025.66 1025.90 1026.06 1026.20 1026.52 1026.60
1003.46 1003.42 1003.78 1004.52 1004.12 1003.16 1001.50 1000.66 1000.71 1000.77 999.50 999.48 999.18 999.76 1001.17 1002.74 1004.26 1005.98 1007.65 1009.12 1010.52 1011.94 1013.01 1014.02 1015.51 1017.14 1018.21 1019.06 1019.91 1021.21 1022.10 1022.76 1023.23 1023.84 1024.39 1024.72 1025.03 1025.22 1025.64 1025.91 1026.11 1026.35 1026.40 1026.42
1002.43 1001.71 1002.07 1003.53 1003.61 1002.93 1002.79 1002.04 1001.67 1001.23 1000.91 1000.39 1000.31 1001.26 1002.39 1003.93 1005.67 1007.24 1008.78 1010.07 1011.48 1012.77 1014.21 1015.40 1016.55 1017.99 1019.22 1020.06 1020.74 1021.75 1022.76 1023.14 1023.73 1024.14 1024.63 1024.97 1025.16 1025.57 1025.80 1025.95 1026.15 1026.21 1026.33 1026.48
1002.21 1002.28 1002.22 1003.27 1003.71 1003.92 1003.81 1003.13 1002.58 1002.18 1001.76 1001.88 1002.34 1002.65 1003.38 1005.23 1007.24 1008.82 1010.29 1011.87 1012.98 1014.14 1015.29 1016.46 1017.61 1019.10 1020.34 1021.08 1021.67 1022.28 1022.89 1023.35 1023.97 1024.65 1025.06 1025.28 1025.56 1025.84 1025.97 1026.07 1026.16 1026.32 1026.44 1026.31
1004.58 1003.46 1003.54 1004.15 1004.35 1004.47 1004.81 1004.42 1003.95 1003.70 1003.46 1003.65 1004.58 1005.07 1005.49 1006.00 1008.91 1009.99 1011.59 1013.25 1014.58 1015.83 1016.92 1017.71 1018.73 1019.92 1021.04 1021.70 1022.37 1022.94 1023.51 1023.99 1024.53 1024.88 1025.16 1025.46 1025.79 1026.04 1026.31 1026.44 1026.48 1026.17 1026.01 1025.69
1006.06 1004.68 1004.66 1004.03 1004.14 1004.38 1005.79 1005.58 1005.26 1004.92 1005.51 1005.86 1005.69 1007.16 1008.34 1008.52 1009.81 1011.53 1013.31 1014.66 1015.69 1016.90 1017.93 1018.83 1019.85 1020.76 1021.77 1022.49 1023.19 1023.64 1023.87 1024.12 1024.54 1025.03 1025.42 1025.73 1026.21 1026.53 1026.70 1026.68 1026.37 1025.91 1025.70 1025.49
Thickness
5533 5534 5544 5543 5536 5540 5544 5544 5544 5561 5565 5564 5571 5579 5601 5607 5619 5620 5631 5635 5637 5644 5651 5651 5654 5656 5654 5654 5654 5655 5655 5653 5653 5647 5641 5636 5631 5630 5626 5623 5622 5619 5616 5614
5516 5533 5543 5535 5531 5534 5532 5534 5540 5555 5563 5558 5568 5573 5592 5602 5606 5626 5624 5633 5638 5640 5642 5646 5649 5652 5652 5650 5649 5648 5650 5648 5648 5643 5637 5633 5628 5623 5620 5616 5613 5611 5607 5604
5524 5538 5534 5529 5527 5526 5529 5531 5541 5555 5555 5560 5562 5565 5575 5593 5604 5618 5628 5632 5640 5642 5643 5644 5646 5649 5648 5646 5644 5644 5644 5643 5642 5637 5630 5623 5620 5614 5610 5607 5604 5601 5598 5595
5513 5528 5529 5523 5526 5530 5531 5543 5535 5536 5544 5544 5558 5566 5579 5590 5600 5610 5626 5632 5642 5647 5646 5646 5644 5646 5647 5643 5639 5638 5637 5637 5635 5632 5626 5623 5616 5608 5603 5602 5598 5593 5590 5586
5522 5519 5516 5517 5531 5526 5537 5536 5534 5535 5534 5531 5550 5542 5581 5595 5598 5614 5633 5642 5646 5648 5652 5647 5645 5646 5644 5640 5635 5633 5630 5631 5629 5625 5622 5616 5608 5601 5597 5594 5589 5585 5581 5578
5520 5523 5516 5525 5526 5525 5531 5524 5521 5523 5521 5524 5553 5549 5572 5590 5627 5646 5644 5647 5649 5646 5648 5643 5637 5636 5638 5634 5631 5626 5626 5625 5623 5620 5614 5610 5602 5594 5588 5582 5579 5575 5571 5568
5509 5512 5518 5521 5516 5520 5520 5514 5523 5520 5516 5531 5556 5544 5589 5623 5634 5650 5654 5653 5649 5646 5644 5638 5636 5633 5632 5632 5629 5621 5620 5618 5614 5611 5606 5602 5597 5591 5584 5578 5573 5567 5561 5558
5490 5499 5514 5524 5525 5519 5514 5513 5516 5518 5515 5527 5541 5545 5605 5633 5637 5641 5653 5660 5651 5646 5646 5643 5642 5633 5629 5630 5625 5618 5613 5610 5607 5603 5597 5593 5589 5583 5577 5572 5565 5560 5555 5551
5488 5498 5527 5529 5525 5528 5518 5514 5533 5521 5525 5522 5545 5570 5601 5617 5624 5634 5646 5652 5654 5653 5647 5644 5639 5632 5628 5623 5622 5614 5607 5603 5599 5594 5587 5583 5579 5574 5568 5562 5557 5551 5546 5542
5503 5492 5519 5522 5522 5524 5522 5530 5516 5511 5527 5532 5556 5567 5600 5607 5632 5631 5641 5652 5648 5645 5642 5637 5635 5628 5622 5619 5610 5605 5601 5595 5588 5584 5579 5574 5569 5563 5558 5552 5547 5541 5536 5531
5497 5487 5503 5508 5513 5524 5519 5515 5512 5516 5527 5522 5526 5562 5604 5619 5622 5635 5642 5645 5646 5643 5639 5637 5629 5619 5613 5607 5601 5596 5591 5583 5576 5573 5566 5562 5557 5552 5547 5542 5537 5530 5525 5521
5494 5484 5487 5494 5515 5531 5531 5525 5518 5510 5520 5527 5519 5557 5599 5609 5616 5626 5625 5633 5634 5630 5630 5624 5617 5608 5601 5597 5592 5587 5579 5572 5565 5560 5555 5550 5545 5541 5535 5530 5525 5520 5514 5509
5486 5478 5455 5478 5496 5508 5517 5526 5531 5527 5525 5532 5546 5563 5587 5598 5608 5617 5617 5618 5618 5614 5612 5608 5600 5594 5594 5590 5583 5576 5567 5560 5554 5550 5544 5537 5532 5528 5524 5519 5513 5508 5502 5498
5465 5460 5488 5494 5508 5513 5512 5526 5526 5529 5513 5536 5551 5579 5607 5594 5594 5595 5596 5606 5605 5597 5600 5595 5587 5586 5587 5582 5574 5565 5556 5550 5544 5538 5532 5526 5520 5517 5513 5507 5502 5495 5490 5486
5441 5456 5471 5496 5506 5512 5522 5526 5523 5518 5540 5525 5573 5558 5585 5590 5592 5594 5592 5590 5590 5586 5584 5582 5577 5575 5574 5568 5559 5553 5545 5539 5533 5526 5519 5513 5508 5506 5501 5496 5490 5484 5479 5474
5409 5445 5459 5481 5503 5500 5510 5523 5526 5538 5551 5549 5550 5553 5574 5570 5571 5574 5580 5584 5584 5576 5573 5569 5565 5563 5560 5553 5546 5541 5533 5526 5520 5513 5506 5501 5497 5493 5488 5483 5477 5471 5466 5461
5389 5423 5436 5474 5497 5488 5482 5518 5525 5532 5540 5551 5539 5585 5559 5561 5574 5571 5573 5575 5576 5570 5562 5559 5554 5552 5545 5540 5535 5528 5520 5513 5506 5500 5493 5489 5485 5480 5475 5470 5464 5458 5453 5448
5399 5409 5435 5456 5480 5471 5522 5540 5541 5535 5542 5548 5555 5561 5567 5569 5563 5562 5567 5567 5560 5557 5551 5545 5540 5534 5529 5525 5518 5513 5507 5500 5493 5488 5482 5477 5472 5467 5462 5456 5451 5445 5438 5434
5396 5406 5432 5452 5471 5504 5519 5532 5533 5527 5548 5551 5558 5544 5540 5539 5541 5535 5553 5556 5551 5544 5535 5531 5527 5520 5514 5508 5503 5498 5490 5485 5480 5472 5468 5463 5460 5454 5449 5443 5436 5430 5426 5420
5401 5408 5428 5439 5452 5478 5521 5532 5536 5540 5548 5559 5566 5554 5543 5553 5537 5528 5541 5543 5533 5527 5523 5515 5510 5505 5499 5491 5489 5484 5475 5470 5464 5459 5455 5452 5448 5442 5435 5428 5422 5419 5413 5405
5397 5402 5428 5436 5448 5470 5506 5522 5532 5516 5546 5550 5566 5558 5555 5567 5561 5531 5525 5517 5517 5511 5505 5501 5495 5488 5480 5476 5473 5466 5460 5455 5451 5447 5443 5438 5433 5428 5421 5416 5411 5406 5397 5390
5418 5426 5433 5436 5447 5454 5467 5509 5521 5513 5523 5534 5554 5554 5551 5530 5525 5517 5509 5502 5497 5491 5489 5485 5477 5468 5464 5462 5458 5449 5444 5441 5438 5433 5427 5424 5419 5416 5410 5403 5397 5390 5383 5376
5420 5450 5452 5445 5447 5441 5452 5476 5486 5494 5508 5519 5525 5523 5521 5515 5507 5500 5494 5489 5482 5477 5470 5466 5461 5453 5447 5443 5442 5436 5429 5427 5423 5419 5415 5411 5408 5401 5395 5390 5382 5375 5367 5359
5411 5408 5425 5440 5431 5431 5443 5459 5477 5489 5497 5503 5503 5506 5508 5496 5486 5479 5473 5466 5463 5460 5454 5449 5444 5436 5428 5426 5425 5422 5419 5416 5412 5406 5401 5397 5391 5385 5380 5373 5366 5357 5349 5343
5379 5393 5395 5396 5417 5429 5434 5444 5460 5469 5478 5481 5479 5481 5482 5485 5467 5464 5456 5448 5443 5438 5434 5433 5429 5423 5416 5414 5410 5408 5406 5402 5397 5393 5388 5382 5376 5370 5361 5353 5345 5342 5336 5334
5359 5389 5401 5421 5424 5428 5421 5433 5445 5454 5455 5458 5465 5458 5455 5459 5452 5445 5435 5430 5427 5422 5419 5416 5412 5408 5402 5399 5396 5394 5392 5389 5384 5378 5372 5365 5357 5349 5341 5336 5332 5331 5326 5320